Location: Mascot Post Office (historical)
(40.2645°N, 99.5462°W)
Time: 02:22:55
(UTC+00:00)

SL-16 R/B - Pass Details

Date: 14 July 2020
Orbit: 985 x 1007 km, 99.5° (Epoch: 14 August)

Event Time Altitude Azimuth Distance (km) Brightness Sun altitude
Exits shadow 08:57:23 38° 214° (SW) 1,493 2.9 -20.8°
Maximum altitude 08:59:17 49° 260° (W) 1,276 2.8 -20.6°
Drops below altitude 10° 09:05:21 10° 334° (NNW) 2,788 5.3 -20.0°
Sets 09:07:57 0° 340° (NNW) 3,743 6.1 -19.7°
